| time (UTC) | temp F | wind direction | speed knots | gust knots | rain 1hr in | rain 24hr in | rain mn in | humidity % | barometer mb |
| 20260509001802 | 59 | 100 | 2.6 | 0.0 | 0.00 | 0.00 | 0.00 | 94 | 1014.0 |
| 20260509000303 | 59 | 100 | 2.6 | 0.0 | 0.00 | 0.00 | 0.00 | 94 | 1014.0 |
| 20260508234802 | 59 | 90 | 4.3 | 0.0 | 0.00 | 0.00 | 0.00 | 94 | 1014.0 |
| 20260508233302 | 59 | 90 | 4.3 | 0.0 | 0.00 | 0.00 | 0.00 | 94 | 1014.0 |
| 20260508231802 | 61 | 90 | 6.1 | 0.0 | 0.00 | 0.00 | 0.00 | 94 | 1015.0 |
| 20260508230302 | 61 | 90 | 6.1 | 0.0 | 0.00 | 0.00 | 0.00 | 94 | 1015.0 |
| 20260508224801 | 61 | 80 | 6.1 | 0.0 | 0.00 | 0.00 | 0.00 | 94 | 1015.0 |
| 20260508223302 | 61 | 80 | 6.1 | 0.0 | 0.00 | 0.00 | 0.00 | 94 | 1015.0 |
| 20260508221802 | 63 | 90 | 4.3 | 0.0 | 0.00 | 0.00 | 0.00 | 88 | 1015.0 |
| 20260508220302 | 63 | 90 | 4.3 | 0.0 | 0.00 | 0.00 | 0.00 | 88 | 1015.0 |
| 20260508214801 | 63 | 80 | 6.1 | 0.0 | 0.00 | 0.00 | 0.00 | 94 | 1015.0 |
| 20260508213302 | 63 | 80 | 6.1 | 0.0 | 0.00 | 0.00 | 0.00 | 94 | 1015.0 |
| 20260508211801 | 64 | 60 | 7.0 | 0.0 | 0.00 | 0.00 | 0.00 | 88 | 1015.0 |
| 20260508210302 | 64 | 60 | 7.0 | 0.0 | 0.00 | 0.00 | 0.00 | 88 | 1015.0 |
| 20260508204802 | 64 | 50 | 12.2 | 0.0 | 0.00 | 0.00 | 0.00 | 88 | 1015.0 |
| 20260508203302 | 64 | 50 | 12.2 | 0.0 | 0.00 | 0.00 | 0.00 | 88 | 1015.0 |
| 20260508201802 | 66 | 30 | 8.7 | 0.0 | 0.00 | 0.00 | 0.00 | 78 | 1014.0 |
| 20260508200302 | 66 | 30 | 8.7 | 0.0 | 0.00 | 0.00 | 0.00 | 78 | 1014.0 |
| 20260508194802 | 68 | 30 | 6.1 | 0.0 | 0.00 | 0.00 | 0.00 | 73 | 1014.0 |
| 20260508193302 | 68 | 30 | 6.1 | 0.0 | 0.00 | 0.00 | 0.00 | 73 | 1014.0 |
| 20260508191802 | 70 | 110 | 6.1 | 0.0 | 0.00 | 0.00 | 0.00 | 64 | 1014.0 |
| 20260508190302 | 70 | 110 | 6.1 | 0.0 | 0.00 | 0.00 | 0.00 | 64 | 1014.0 |
| 20260508184802 | 68 | 120 | 4.3 | 0.0 | 0.00 | 0.00 | 0.00 | 73 | 1013.0 |
| 20260508183302 | 68 | 120 | 4.3 | 0.0 | 0.00 | 0.00 | 0.00 | 73 | 1013.0 |
| 20260508181805 | 68 | 130 | 6.1 | 0.0 | 0.00 | 0.00 | 0.00 | 73 | 1013.0 |
| 20260508180302 | 68 | 130 | 6.1 | 0.0 | 0.00 | 0.00 | 0.00 | 73 | 1013.0 |
| 20260508174803 | 72 | 120 | 7.0 | 0.0 | 0.00 | 0.00 | 0.00 | 61 | 1013.0 |
| 20260508173302 | 72 | 120 | 7.0 | 0.0 | 0.00 | 0.00 | 0.00 | 61 | 1013.0 |
| 20260508171802 | 72 | 130 | 6.1 | 0.0 | 0.00 | 0.00 | 0.00 | 61 | 1013.0 |
| 20260508170302 | 72 | 130 | 6.1 | 0.0 | 0.00 | 0.00 | 0.00 | 61 | 1013.0 |
| 20260508164802 | 73 | 150 | 6.1 | 0.0 | 0.00 | 0.00 | 0.00 | 57 | 1012.0 |
| 20260508163303 | 73 | 150 | 6.1 | 0.0 | 0.00 | 0.00 | 0.00 | 57 | 1012.0 |
| 20260508161802 | 77 | 140 | 6.1 | 0.0 | 0.00 | 0.00 | 0.00 | 44 | 1013.0 |
| 20260508160302 | 77 | 140 | 6.1 | 0.0 | 0.00 | 0.00 | 0.00 | 44 | 1013.0 |
| 20260508154802 | 77 | 190 | 7.0 | 0.0 | 0.00 | 0.00 | 0.00 | 44 | 1013.0 |
| 20260508153302 | 77 | 190 | 7.0 | 0.0 | 0.00 | 0.00 | 0.00 | 44 | 1013.0 |
| 20260508151802 | 79 | 150 | 8.7 | 0.0 | 0.00 | 0.00 | 0.00 | 45 | 1013.0 |
| 20260508150302 | 79 | 150 | 8.7 | 0.0 | 0.00 | 0.00 | 0.00 | 45 | 1013.0 |
| 20260508144803 | 81 | 100 | 2.6 | 0.0 | 0.00 | 0.00 | 0.00 | 34 | 1013.0 |
| 20260508143302 | 81 | 100 | 2.6 | 0.0 | 0.00 | 0.00 | 0.00 | 34 | 1013.0 |
| 20260508141802 | 79 | 80 | 2.6 | 0.0 | 0.00 | 0.00 | 0.00 | 42 | 1013.0 |
| 20260508140302 | 79 | 80 | 2.6 | 0.0 | 0.00 | 0.00 | 0.00 | 42 | 1013.0 |
| 20260508134915 | 81 | 70 | 5.2 | 0.0 | 0.00 | 0.00 | 0.00 | 37 | 1013.0 |
| 20260508133301 | 81 | 70 | 5.2 | 0.0 | 0.00 | 0.00 | 0.00 | 37 | 1013.0 |
| 20260508131802 | 79 | 2.6 | 0.0 | 0.00 | 0.00 | 0.00 | 39 | 1014.0 | |
| 20260508130303 | 79 | 2.6 | 0.0 | 0.00 | 0.00 | 0.00 | 39 | 1014.0 | |
| 20260508124801 | 79 | 220 | 4.3 | 0.0 | 0.00 | 0.00 | 0.00 | 39 | 1014.0 |
| 20260508123302 | 79 | 220 | 4.3 | 0.0 | 0.00 | 0.00 | 0.00 | 39 | 1014.0 |
| 20260508121810 | 81 | 1.7 | 0.0 | 0.00 | 0.00 | 0.00 | 39 | 1014.0 | |
| 20260508120301 | 81 | 1.7 | 0.0 | 0.00 | 0.00 | 0.00 | 39 | 1014.0 | |
| 20260508114802 | 77 | 1.7 | 0.0 | 0.00 | 0.00 | 0.00 | 42 | 1014.0 | |
| 20260508113302 | 77 | 1.7 | 0.0 | 0.00 | 0.00 | 0.00 | 42 | 1014.0 | |
| 20260508111802 | 75 | 290 | 4.3 | 0.0 | 0.00 | 0.00 | 0.00 | 50 | 1015.0 |
| 20260508110302 | 75 | 290 | 4.3 | 0.0 | 0.00 | 0.00 | 0.00 | 50 | 1015.0 |
| 20260508104804 | 77 | 5.2 | 0.0 | 0.00 | 0.00 | 0.00 | 47 | 1015.0 | |
| 20260508103314 | 77 | 5.2 | 0.0 | 0.00 | 0.00 | 0.00 | 51 | 1015.0 | |
| 20260508101802 | 77 | 5.2 | 0.0 | 0.00 | 0.00 | 0.00 | 51 | 1015.0 | |
| 20260508100302 | 77 | 5.2 | 0.0 | 0.00 | 0.00 | 0.00 | 51 | 1015.0 | |
| 20260508094802 | 77 | 4.3 | 0.0 | 0.00 | 0.00 | 0.00 | 44 | 1015.0 | |
| 20260508093302 | 77 | 4.3 | 0.0 | 0.00 | 0.00 | 0.00 | 44 | 1015.0 | |
| 20260508091801 | 75 | 1.7 | 0.0 | 0.00 | 0.00 | 0.00 | 50 | 1016.0 | |
| 20260508090302 | 75 | 1.7 | 0.0 | 0.00 | 0.00 | 0.00 | 50 | 1016.0 | |
| 20260508084801 | 73 | 330 | 2.6 | 0.0 | 0.00 | 0.00 | 0.00 | 61 | 1016.0 |
| 20260508083302 | 73 | 330 | 2.6 | 0.0 | 0.00 | 0.00 | 0.00 | 61 | 1016.0 |
| 20260508081802 | 70 | 2.6 | 0.0 | 0.00 | 0.00 | 0.00 | 64 | 1016.0 | |
| 20260508080301 | 70 | 2.6 | 0.0 | 0.00 | 0.00 | 0.00 | 64 | 1016.0 | |
| 20260508074801 | 66 | 0.9 | 0.0 | 0.00 | 0.00 | 0.00 | 68 | 1016.0 | |
| 20260508073302 | 66 | 0.9 | 0.0 | 0.00 | 0.00 | 0.00 | 68 | 1016.0 | |
| 20260508071802 | 64 | 70 | 2.6 | 0.0 | 0.00 | 0.00 | 0.00 | 78 | 1016.0 |
| 20260508070302 | 64 | 70 | 2.6 | 0.0 | 0.00 | 0.00 | 0.00 | 78 | 1016.0 |
| 20260508064803 | 63 | 60 | 2.6 | 0.0 | 0.00 | 0.00 | 0.00 | 77 | 1016.0 |
| 20260508063302 | 63 | 60 | 2.6 | 0.0 | 0.00 | 0.00 | 0.00 | 77 | 1016.0 |
| 20260508061802 | 61 | 0 | 0.0 | 0.0 | 0.00 | 0.00 | 0.00 | 83 | 1016.0 |
| 20260508060302 | 61 | 0 | 0.0 | 0.0 | 0.00 | 0.00 | 0.00 | 83 | 1016.0 |
| 20260508054803 | 59 | 0.9 | 0.0 | 0.00 | 0.00 | 0.00 | 82 | 1016.0 | |
| 20260508053302 | 59 | 0.9 | 0.0 | 0.00 | 0.00 | 0.00 | 82 | 1016.0 | |
| 20260508051803 | 57 | 310 | 2.6 | 0.0 | 0.00 | 0.00 | 0.00 | 88 | 1016.0 |
| 20260508050302 | 57 | 310 | 2.6 | 0.0 | 0.00 | 0.00 | 0.00 | 88 | 1016.0 |
| 20260508044802 | 59 | 0.9 | 0.0 | 0.00 | 0.00 | 0.00 | 77 | 1016.0 | |
| 20260508043301 | 59 | 0.9 | 0.0 | 0.00 | 0.00 | 0.00 | 77 | 1016.0 | |
| 20260508041803 | 55 | 80 | 2.6 | 0.0 | 0.00 | 0.00 | 0.00 | 88 | 1015.0 |
| 20260508040302 | 55 | 80 | 2.6 | 0.0 | 0.00 | 0.00 | 0.00 | 88 | 1015.0 |
| 20260508034802 | 55 | 70 | 2.6 | 0.0 | 0.00 | 0.00 | 0.00 | 88 | 1015.0 |
| 20260508033302 | 55 | 70 | 2.6 | 0.0 | 0.00 | 0.00 | 0.00 | 88 | 1015.0 |
| 20260508031802 | 55 | 100 | 4.3 | 0.0 | 0.00 | 0.00 | 0.00 | 88 | 1015.0 |
| 20260508030302 | 55 | 100 | 4.3 | 0.0 | 0.00 | 0.00 | 0.00 | 88 | 1015.0 |
| 20260508024802 | 55 | 70 | 1.7 | 0.0 | 0.00 | 0.00 | 0.00 | 94 | 1015.0 |
| 20260508023302 | 55 | 70 | 1.7 | 0.0 | 0.00 | 0.00 | 0.00 | 94 | 1015.0 |
| 20260508021802 | 55 | 90 | 4.3 | 0.0 | 0.00 | 0.00 | 0.00 | 88 | 1015.0 |
| 20260508020302 | 55 | 90 | 4.3 | 0.0 | 0.00 | 0.00 | 0.00 | 88 | 1015.0 |
| 20260508014802 | 55 | 60 | 2.6 | 0.0 | 0.00 | 0.00 | 0.00 | 88 | 1015.0 |
| 20260508013302 | 55 | 60 | 2.6 | 0.0 | 0.00 | 0.00 | 0.00 | 88 | 1015.0 |
| 20260508011802 | 55 | 60 | 4.3 | 0.0 | 0.00 | 0.00 | 0.00 | 88 | 1015.0 |
| 20260508010302 | 55 | 60 | 4.3 | 0.0 | 0.00 | 0.00 | 0.00 | 88 | 1015.0 |
| 20260508004802 | 57 | 60 | 5.2 | 0.0 | 0.00 | 0.00 | 0.00 | 88 | 1015.0 |
| 20260508003302 | 57 | 60 | 5.2 | 0.0 | 0.00 | 0.00 | 0.00 | 88 | 1015.0 |